| time (UTC) | temp F | wind direction | speed MPH | gust MPH | rain 1hr in | rain 24hr in | rain mn in | humidity % | barometer mb |
| 20260503184604 | 63 | 290 | 0.0 | 0.0 | 0.00 | 0.01 | 0.00 | 36 | 1016.5 |
| 20260503183017 | 62 | 306 | 0.0 | 0.0 | 0.00 | 0.01 | 0.00 | 36 | 1016.7 |
| 20260503181527 | 62 | 326 | 0.0 | 0.0 | 0.00 | 0.01 | 0.00 | 36 | 1016.8 |
| 20260503180056 | 62 | 290 | 0.0 | 0.0 | 0.00 | 0.03 | 0.00 | 36 | 1016.6 |
| 20260503174505 | 62 | 342 | 0.0 | 2.0 | 0.00 | 0.03 | 0.00 | 37 | 1016.8 |
| 20260503173027 | 61 | 300 | 0.0 | 0.0 | 0.00 | 0.03 | 0.00 | 38 | 1017.0 |
| 20260503171546 | 60 | 276 | 0.0 | 0.0 | 0.00 | 0.03 | 0.00 | 40 | 1017.0 |
| 20260503140110 | 57 | 281 | 0.0 | 0.0 | 0.00 | 0.08 | 0.00 | 46 | 1017.5 |
| 20260503090104 | 46 | 290 | 0.0 | 0.0 | 0.00 | 0.10 | 0.00 | 89 | 1013.7 |
| 20260503081538 | 46 | 290 | 0.0 | 0.0 | 0.00 | 0.10 | 0.00 | 87 | 1013.3 |
| 20260503071609 | 46 | 289 | 0.0 | 0.0 | 0.00 | 0.10 | 0.00 | 87 | 1012.6 |
| 20260503054549 | 48 | 63 | 0.0 | 0.0 | 0.00 | 0.10 | 0.00 | 83 | 1011.9 |
| 20260503053047 | 49 | 63 | 0.0 | 0.0 | 0.00 | 0.10 | 0.00 | 81 | 1012.0 |
| 20260503051503 | 50 | 63 | 0.0 | 0.0 | 0.00 | 0.10 | 0.00 | 79 | 1012.2 |
| 20260503050028 | 51 | 63 | 0.0 | 0.0 | 0.00 | 0.10 | 0.00 | 76 | 1012.1 |
| 20260503044540 | 52 | 63 | 0.0 | 0.0 | 0.00 | 0.10 | 0.00 | 73 | 1012.2 |
| 20260503043056 | 52 | 63 | 0.0 | 0.0 | 0.00 | 0.10 | 0.00 | 71 | 1012.2 |
| 20260503041506 | 53 | 63 | 0.0 | 0.0 | 0.00 | 0.10 | 0.00 | 71 | 1012.1 |
| 20260503040022 | 53 | 63 | 0.0 | 0.0 | 0.00 | 0.10 | 0.10 | 70 | 1012.2 |
| 20260503034536 | 53 | 63 | 0.0 | 0.0 | 0.00 | 0.10 | 0.10 | 72 | 1012.2 |
| 20260503033048 | 53 | 63 | 0.0 | 0.0 | 0.00 | 0.10 | 0.10 | 67 | 1012.1 |
| 20260503031531 | 53 | 63 | 0.0 | 0.0 | 0.00 | 0.10 | 0.10 | 67 | 1012.0 |
| 20260503030056 | 53 | 63 | 0.0 | 0.0 | 0.00 | 0.10 | 0.10 | 67 | 1012.0 |
| 20260503024519 | 54 | 63 | 0.0 | 0.0 | 0.00 | 0.10 | 0.10 | 66 | 1012.2 |
| 20260503023033 | 54 | 63 | 0.0 | 0.0 | 0.00 | 0.10 | 0.10 | 65 | 1012.2 |
| 20260503021548 | 54 | 63 | 0.0 | 0.0 | 0.00 | 0.10 | 0.10 | 65 | 1012.2 |
| 20260503020054 | 54 | 63 | 0.0 | 0.0 | 0.00 | 0.10 | 0.10 | 65 | 1012.2 |
| 20260503014501 | 54 | 63 | 0.0 | 0.0 | 0.00 | 0.10 | 0.10 | 65 | 1012.1 |
| 20260503013032 | 54 | 63 | 0.0 | 0.0 | 0.00 | 0.10 | 0.10 | 63 | 1011.7 |
| 20260503011548 | 54 | 63 | 0.0 | 0.0 | 0.00 | 0.10 | 0.10 | 63 | 1011.7 |
| 20260503010014 | 55 | 63 | 0.0 | 0.0 | 0.00 | 0.10 | 0.10 | 61 | 1011.8 |
| 20260503004531 | 55 | 84 | 0.0 | 0.0 | 0.00 | 0.10 | 0.10 | 60 | 1011.6 |
| 20260503003048 | 55 | 82 | 0.0 | 0.0 | 0.00 | 0.10 | 0.10 | 59 | 1011.3 |
| 20260503001515 | 55 | 70 | 0.0 | 0.0 | 0.00 | 0.10 | 0.10 | 55 | 1011.3 |
| 20260503000030 | 55 | 70 | 0.0 | 0.0 | 0.00 | 0.10 | 0.10 | 51 | 1011.2 |
| 20260502234552 | 55 | 13 | 0.0 | 0.0 | 0.00 | 0.10 | 0.10 | 49 | 1011.1 |
| 20260502233102 | 55 | 76 | 0.0 | 0.0 | 0.00 | 0.10 | 0.10 | 55 | 1010.8 |
| 20260502231517 | 56 | 57 | 0.0 | 1.0 | 0.00 | 0.10 | 0.10 | 54 | 1011.0 |
| 20260502230043 | 56 | 49 | 0.0 | 0.0 | 0.00 | 0.10 | 0.10 | 57 | 1010.8 |
| 20260502224605 | 56 | 15 | 0.0 | 0.0 | 0.00 | 0.10 | 0.10 | 57 | 1010.8 |
| 20260502223019 | 56 | 59 | 0.0 | 0.0 | 0.00 | 0.10 | 0.10 | 55 | 1010.9 |
| 20260502221540 | 57 | 28 | 0.0 | 0.0 | 0.00 | 0.10 | 0.10 | 54 | 1011.1 |
| 20260502220055 | 57 | 143 | 0.0 | 0.0 | 0.00 | 0.10 | 0.10 | 59 | 1010.9 |
| 20260502214514 | 57 | 14 | 0.0 | 0.0 | 0.00 | 0.10 | 0.10 | 61 | 1010.8 |
| 20260502213035 | 58 | 304 | 0.0 | 0.0 | 0.00 | 0.10 | 0.10 | 61 | 1010.7 |
| 20260502211548 | 58 | 342 | 0.0 | 0.0 | 0.00 | 0.10 | 0.10 | 60 | 1010.6 |
| 20260502210002 | 58 | 48 | 0.0 | 0.0 | 0.00 | 0.10 | 0.10 | 58 | 1010.5 |
| 20260502204522 | 58 | 25 | 0.0 | 0.0 | 0.00 | 0.10 | 0.10 | 58 | 1010.6 |
| 20260502203019 | 58 | 290 | 0.0 | 2.0 | 0.00 | 0.10 | 0.10 | 56 | 1010.5 |
| 20260502201548 | 58 | 76 | 0.0 | 0.0 | 0.00 | 0.10 | 0.10 | 59 | 1010.4 |
| 20260502200052 | 58 | 334 | 0.0 | 0.0 | 0.00 | 0.10 | 0.10 | 65 | 1010.7 |
| 20260502194505 | 56 | 23 | 0.0 | 0.0 | 0.00 | 0.10 | 0.10 | 72 | 1010.5 |
| 20260502193025 | 56 | 67 | 0.0 | 0.0 | 0.00 | 0.10 | 0.10 | 70 | 1011.1 |
| 20260502191556 | 55 | 312 | 0.0 | 0.0 | 0.00 | 0.10 | 0.10 | 70 | 1011.2 |
| 20260502190109 | 55 | 35 | 0.0 | 0.0 | 0.00 | 0.10 | 0.10 | 70 | 1011.3 |